Vertical_Velocity
-0 -1 4 4 1 1 -4 4 6 2 -1 4 5 3 1 3 4 0 2 -1 -1 -2
10 159 -12 -1 7 8 -7 -10 0 -4 21 2 0 -1 1 0 0 -3 3 1 -2 1
8 12 2 9 7 1 -12 -2 6 -1 22 4 -0 -5 12 1 4 -2 5 3 2 9
1 5 3 6 9 2 2 0 0 -3 -1 -1 7 9 -1 3 -0 4 13 7 2 5
-3 -1 2 2 2 3 4 1 1 -2 -2 0 1 1 7 10 -13 -9 1 6 9 -1
3 -1 -4 -5 -3 0 -1 -2 -0 -2 -2 2 5 -3 3 7 -3 -5 -0 12 -1 -10
3 3 -2 -3 -2 -1 3 7 5 4 0 -2 3 2 10 -0 3 1 6 3 1 6
8 2 2 1 -5 -7 -6 1 2 4 1 6 9 6 9 5 3 4 1 -0 -4 -0
6 3 -1 -0 -0 -3 -3 -3 -1 -2 3 1 0 4 3 8 -1 -2 5 -6 3 -4
-2 -3 -4 -4 -1 3 1 -1 -3 -4 -4 0 3 -1 -2 -2 -6 -5 1 0 0 4
-2 0 1 1 3 2 5 1 -1 -0 -4 -4 -3 -1 2 1 -5 -2 -0 -1 0 -1
-3 -5 -6 -5 -6 -4 -3 -3 -4 -4 -2 1 4 -2 1 -1 -2 0 0 1 -1 1
-2 -4 1 3 -3 -4 -3 -4 -2 -5 -3 -4 6 -0 1 0 -1 -1 1 -0 -1 -1
-0 -3 -2 -5 -5 -3 -2 2 -1 0 -1 1 -2 -2 -2 2 1 2 1 -0 1 -3
Height
5773 5774 5779 5784 5788 5791 5796 5799 5800 5802 5804 5806 5808 5808 5808 5808 5807 5807 5807 5806 5806 5806
5755 5754 5757 5772 5777 5779 5782 5787 5787 5789 5790 5793 5796 5798 5797 5797 5797 5795 5795 5797 5796 5796
5743 5746 5754 5761 5765 5768 5770 5771 5773 5774 5774 5779 5782 5784 5786 5787 5786 5785 5785 5786 5786 5786
5731 5735 5740 5746 5751 5753 5755 5757 5760 5764 5766 5767 5770 5773 5775 5776 5775 5772 5771 5771 5773 5775
5714 5717 5722 5726 5732 5738 5740 5742 5745 5748 5751 5751 5755 5758 5760 5760 5758 5758 5759 5756 5755 5763
5700 5703 5706 5709 5712 5718 5723 5728 5731 5732 5732 5736 5737 5738 5741 5741 5743 5742 5743 5741 5743 5746
5685 5688 5691 5695 5698 5700 5704 5709 5713 5716 5720 5721 5720 5719 5721 5724 5726 5728 5728 5731 5734 5735
5668 5671 5675 5677 5681 5686 5689 5692 5695 5699 5703 5709 5708 5706 5706 5709 5713 5714 5715 5718 5720 5723
5653 5655 5658 5661 5663 5666 5670 5673 5678 5681 5686 5689 5693 5694 5694 5695 5697 5699 5701 5703 5706 5709
5636 5640 5643 5646 5648 5650 5652 5655 5657 5661 5666 5671 5675 5676 5678 5680 5681 5684 5685 5688 5692 5694
5616 5620 5625 5629 5632 5635 5637 5638 5640 5643 5646 5651 5655 5658 5661 5663 5665 5668 5669 5672 5675 5677
5598 5603 5607 5611 5613 5616 5618 5621 5623 5626 5629 5633 5636 5639 5643 5645 5649 5653 5655 5657 5659 5662
5581 5586 5589 5592 5593 5596 5599 5600 5603 5606 5610 5614 5618 5620 5623 5627 5632 5636 5639 5642 5644 5647
5563 5563 5566 5568 5572 5575 5578 5582 5585 5587 5589 5593 5597 5600 5605 5609 5613 5617 5620 5623 5627 5630